period_start,C,m1,H,J0,J1,J2,J3,J4,J5,JA,JB,JC,JD,JJ,JK,JN,#
2014-06-08 00:02:14,0.01,0.51,0.00,30.19,34.69,36.96,9.38,40.45,1015.26,2007.00,3241.58,3115.00,3385.00,500.15,484.34,6.51,0000 0000 0000 0000 000000
2014-06-08 00:07:15,0.01,0.51,0.00,30.21,34.70,36.97,9.22,40.35,1015.19,2007.00,3241.03,3114.84,3384.87,499.35,483.53,6.55,0000 0000 0000 0000 000000
2014-06-08 00:12:16,0.06,0.51,0.00,30.22,34.70,36.97,9.35,40.52,1015.16,2007.00,3240.28,3114.04,3384.00,499.98,484.36,6.59,0000 0000 0000 0000 000000
2014-06-08 00:17:18,0.04,0.51,0.00,30.22,34.70,36.98,9.37,40.44,1015.15,2007.00,3239.90,3113.48,3383.28,499.96,484.13,6.63,0000 0000 0000 0000 000000
2014-06-08 00:22:19,0.02,0.52,0.00,30.22,34.70,36.98,9.32,40.49,1015.15,2007.00,3239.13,3113.01,3382.96,499.69,483.89,6.67,0000 0000 0000 0000 000000
2014-06-08 00:27:20,0.03,0.52,0.00,30.22,34.71,36.99,9.32,40.53,1015.15,2007.00,3238.71,3112.81,3382.37,499.92,484.02,6.72,0000 0000 0000 0000 000000
2014-06-08 00:32:21,0.03,0.52,0.00,30.22,34.72,37.00,9.32,40.31,1015.17,2006.99,3238.13,3112.14,3382.00,499.88,484.13,6.76,0000 0000 0000 0000 000000
2014-06-08 00:37:22,0.04,0.52,0.00,30.22,34.72,37.00,9.34,40.50,1015.15,2006.99,3237.59,3111.79,3381.53,499.83,483.94,6.80,0000 0000 0000 0000 000000
2014-06-08 00:42:24,0.05,0.52,0.00,30.22,34.72,37.00,9.33,40.52,1015.15,2006.99,3236.50,3111.01,3380.58,500.05,484.21,6.84,0000 0000 0000 0000 000000
2014-06-08 00:47:25,0.05,0.52,0.00,30.22,34.73,37.02,9.34,40.44,1015.15,2006.99,3235.58,3110.19,3379.93,499.92,484.10,6.88,0000 0000 0000 0000 000000
2014-06-08 00:52:27,0.02,0.53,0.00,30.24,34.73,37.01,9.29,40.46,1015.15,2006.99,3234.94,3109.85,3379.23,500.14,484.43,6.93,0000 0000 0000 0000 000000
2014-06-08 00:57:28,0.11,0.53,0.00,30.25,34.74,37.01,9.35,40.42,1015.15,2006.99,3233.66,3108.60,3378.06,499.55,483.69,6.97,0000 0000 0000 0000 000000
2014-06-08 01:02:29,0.09,0.53,0.00,30.25,34.75,37.02,9.40,40.30,1015.07,2006.98,3231.96,3107.13,3376.42,500.30,484.44,7.01,0000 0000 0000 0000 000000
2014-06-08 01:07:30,0.06,0.54,0.00,30.25,34.75,37.03,9.32,40.40,1015.11,2006.97,3230.83,3106.22,3375.60,499.89,484.01,7.05,0000 0000 0000 0000 000000
2014-06-08 01:12:31,0.03,0.54,0.00,30.25,34.75,37.03,9.37,40.28,1015.08,2006.96,3230.00,3105.69,3374.93,499.88,484.12,7.09,0000 0000 0000 0000 000000
2014-06-08 01:17:32,0.03,0.54,0.00,30.27,34.75,37.03,9.28,40.33,1014.83,2006.96,3229.50,3105.12,3374.41,499.70,483.71,7.13,0000 0000 0000 0000 000000
2014-06-08 01:22:33,0.01,0.54,0.00,30.28,34.77,37.03,9.38,40.27,1014.72,2006.94,3229.08,3105.02,3374.06,500.42,484.11,7.18,0000 0000 0000 0000 000000
2014-06-08 01:27:35,0.00,0.54,0.00,30.30,34.77,37.04,9.32,40.24,1014.77,2006.96,3229.00,3105.00,3374.00,500.09,484.01,7.22,0000 0000 0000 0000 000000
2014-06-08 01:32:35,0.00,0.54,0.00,30.31,34.77,37.04,9.36,40.31,1014.78,2006.94,3228.97,3105.00,3374.00,499.87,483.66,7.26,0000 0000 0000 0000 000000
2014-06-08 01:37:36,0.01,0.54,0.00,30.32,34.78,37.04,9.30,40.34,1014.95,2006.96,3228.61,3104.96,3373.95,500.13,484.09,7.30,0000 0000 0000 0000 000000
2014-06-08 01:42:37,0.03,0.54,0.00,30.34,34.79,37.06,9.33,40.37,1015.00,2006.93,3228.10,3104.65,3373.65,499.97,483.97,7.34,0000 0000 0000 0000 000000
2014-06-08 01:47:39,0.02,0.54,0.00,30.35,34.80,37.06,9.38,40.47,1014.98,2006.87,3227.99,3104.07,3373.07,500.29,484.18,7.39,0000 0000 0000 0000 000000
2014-06-08 01:52:40,-0.01,0.54,0.00,30.36,34.80,37.05,9.39,40.38,1015.09,2006.74,3227.68,3104.00,3372.99,500.43,484.19,7.43,0000 0000 0000 0000 000000
2014-06-08 01:57:41,-0.02,0.54,0.00,30.37,34.81,37.07,9.32,40.49,1015.11,2006.49,3227.07,3103.92,3372.81,499.70,483.49,7.47,0000 0000 0000 0000 000000
2014-06-08 02:02:43,0.02,0.54,0.00,30.40,34.82,37.08,9.28,40.48,1015.11,2006.38,3226.99,3103.62,3372.30,500.05,483.83,7.51,0000 0000 0000 0000 000000
2014-06-08 02:07:44,0.01,0.54,0.00,30.41,34.83,37.08,9.42,40.58,1015.14,2006.28,3226.59,3103.08,3372.02,500.17,483.98,7.55,0000 0000 0000 0000 000000
2014-06-08 02:12:45,-0.00,0.54,0.00,30.42,34.84,37.09,9.29,40.52,1015.11,2006.17,3226.21,3103.00,3371.99,499.98,483.78,7.59,0000 0000 0000 0000 000000
2014-06-08 02:17:46,-0.00,0.54,0.00,30.44,34.85,37.11,9.32,40.56,1015.15,2006.08,3226.01,3102.98,3371.78,499.80,483.63,7.64,0000 0000 0000 0000 000000
2014-06-08 02:22:47,0.01,0.55,0.00,30.45,34.86,37.11,9.42,40.57,1015.13,2006.03,3225.95,3102.89,3371.19,500.54,484.30,7.68,0000 0000 0000 0000 000000
2014-06-08 02:27:49,0.04,0.55,0.00,30.47,34.87,37.13,9.37,40.55,1015.14,2006.03,3225.36,3102.37,3371.01,499.93,483.60,7.72,0000 0000 0000 0000 000000
2014-06-08 02:32:50,0.01,0.55,0.00,30.48,34.89,37.14,9.29,40.54,1015.13,2006.01,3225.04,3102.05,3370.99,499.73,483.47,7.76,0000 0000 0000 0000 000000
2014-06-08 02:37:51,0.00,0.55,0.00,30.50,34.90,37.15,9.39,40.53,1015.12,2006.00,3225.00,3102.00,3370.72,499.87,483.58,7.80,0000 0000 0000 0000 000000
2014-06-08 02:42:53,0.00,0.55,0.00,30.51,34.90,37.15,9.32,40.52,1015.06,2005.99,3224.96,3101.98,3370.08,499.85,483.44,7.85,0000 0000 0000 0000 000000
2014-06-08 02:47:54,0.02,0.55,0.00,30.54,34.92,37.16,9.35,40.67,1015.11,2005.99,3224.65,3101.76,3370.00,499.81,483.66,7.89,0000 0000 0000 0000 000000
2014-06-08 02:52:55,0.02,0.55,0.00,30.55,34.92,37.18,9.49,40.61,1015.14,2005.95,3224.12,3101.22,3369.92,500.72,484.33,7.93,0000 0000 0000 0000 000000
2014-06-08 02:57:56,0.01,0.55,0.00,30.56,34.94,37.19,9.33,40.53,1015.13,2005.90,3224.00,3101.04,3369.65,499.66,483.31,7.97,0000 0000 0000 0000 000000
2014-06-08 03:02:57,-0.00,0.55,0.00,30.57,34.95,37.20,9.44,40.69,1015.13,2005.81,3224.00,3101.00,3369.21,500.48,484.07,8.01,0000 0000 0000 0000 000000
2014-06-08 03:07:58,-0.03,0.55,0.00,30.57,34.95,37.21,9.37,40.64,1015.07,2005.61,3223.93,3101.00,3369.03,500.01,483.63,8.06,0000 0000 0000 0000 000000
2014-06-08 03:12:59,-0.01,0.55,0.00,30.58,34.97,37.23,9.26,40.65,1015.04,2005.39,3223.42,3100.96,3369.00,499.81,483.34,8.10,0000 0000 0000 0000 000000
2014-06-08 03:18:01,0.01,0.55,0.00,30.60,34.97,37.24,9.26,40.64,1015.07,2005.23,3223.01,3100.66,3368.96,499.55,483.21,8.14,0000 0000 0000 0000 000000
2014-06-08 03:23:02,-0.00,0.55,0.00,30.62,34.99,37.24,9.38,40.67,1015.07,2005.10,3222.99,3100.20,3368.77,499.74,483.12,8.18,0000 0000 0000 0000 000000
2014-06-08 03:28:03,0.01,0.55,0.00,30.62,35.00,37.26,9.36,40.71,1014.99,2005.04,3222.93,3100.03,3368.23,500.44,483.89,8.22,0000 0000 0000 0000 000000
2014-06-08 03:33:04,0.01,0.55,0.00,30.64,35.00,37.27,9.40,40.76,1015.02,2005.03,3222.59,3100.01,3368.05,500.36,483.83,8.26,0000 0000 0000 0000 000000
2014-06-08 03:38:05,0.00,0.55,0.00,30.65,35.01,37.28,9.31,40.69,1014.90,2005.00,3222.07,3099.99,3368.00,499.87,483.23,8.31,0000 0000 0000 0000 000000
2014-06-08 03:43:06,0.00,0.55,0.00,30.65,35.02,37.28,9.32,40.73,1014.74,2005.00,3222.00,3099.95,3367.98,500.09,483.36,8.35,0000 0000 0000 0000 000000
2014-06-08 03:48:07,-0.00,0.55,0.00,30.67,35.02,37.29,9.36,40.91,1014.75,2005.00,3222.00,3099.89,3367.94,499.96,483.23,8.39,0000 0000 0000 0000 000000
2014-06-08 03:53:09,0.02,0.55,0.00,30.67,35.04,37.31,9.26,40.76,1014.74,2005.00,3221.97,3099.58,3367.62,499.38,482.70,8.43,0000 0000 0000 0000 000000
2014-06-08 03:58:10,0.02,0.55,0.00,30.68,35.05,37.32,9.33,40.78,1014.70,2005.00,3221.70,3099.16,3367.23,499.90,483.15,8.47,0000 0000 0000 0000 000000
2014-06-08 04:03:10,0.01,0.55,0.00,30.70,35.05,37.33,9.36,40.64,1014.74,2005.00,3221.13,3099.01,3367.02,500.16,483.47,8.51,0000 0000 0000 0000 000000
2014-06-08 04:08:12,0.00,0.55,0.00,30.70,35.07,37.34,9.37,40.74,1014.73,2005.00,3221.02,3099.00,3367.00,500.17,483.40,8.56,0000 0000 0000 0000 000000
2014-06-08 04:13:13,-0.00,0.55,0.00,30.71,35.08,37.34,9.25,40.63,1014.68,2004.99,3221.00,3099.00,3366.98,499.76,483.03,8.60,0000 0000 0000 0000 000000
2014-06-08 04:18:14,0.00,0.55,0.00,30.72,35.09,37.35,9.34,40.58,1014.69,2004.98,3220.97,3098.97,3366.82,499.94,483.03,8.64,0000 0000 0000 0000 000000
2014-06-08 04:23:15,0.02,0.55,0.00,30.72,35.10,37.37,9.40,40.64,1014.67,2004.97,3220.71,3098.79,3366.30,500.43,483.66,8.68,0000 0000 0000 0000 000000
2014-06-08 04:28:16,0.02,0.56,0.00,30.72,35.10,37.38,9.29,40.60,1014.69,2004.94,3220.14,3098.34,3366.03,500.01,483.20,8.72,0000 0000 0000 0000 000000
2014-06-08 04:33:17,-0.00,0.56,0.00,30.72,35.11,37.38,9.36,40.52,1014.68,2004.88,3220.02,3098.08,3366.00,500.36,483.35,8.77,0000 0000 0000 0000 000000
2014-06-08 04:38:19,0.01,0.56,0.00,30.73,35.12,37.40,9.46,40.72,1014.68,2004.91,3220.00,3098.01,3366.00,500.49,483.59,8.81,0000 0000 0000 0000 000000
2014-06-08 04:43:19,-0.01,0.56,0.00,30.75,35.12,37.40,9.37,40.66,1014.67,2004.87,3219.96,3098.00,3365.97,499.94,483.05,8.85,0000 0000 0000 0000 000000
2014-06-08 04:48:20,0.02,0.56,0.00,30.73,35.13,37.41,9.36,40.73,1014.66,2004.80,3219.56,3097.99,3365.58,499.89,483.03,8.89,0000 0000 0000 0000 000000
2014-06-08 04:53:22,0.02,0.56,0.00,30.72,35.15,37.42,9.40,40.63,1014.66,2004.78,3219.04,3097.83,3365.09,500.46,483.59,8.93,0000 0000 0000 0000 000000
2014-06-08 04:58:23,-0.01,0.56,0.00,30.74,35.15,37.42,9.28,40.62,1014.66,2004.59,3218.99,3097.33,3365.00,499.85,482.90,8.97,0000 0000 0000 0000 000000
2014-06-08 05:03:24,-0.02,0.56,0.00,30.75,35.15,37.43,9.21,40.60,1014.67,2004.31,3218.88,3097.03,3364.92,499.44,482.64,9.02,0000 0000 0000 0000 000000
2014-06-08 05:08:25,0.01,0.56,0.00,30.74,35.16,37.43,9.36,40.83,1014.69,2004.12,3218.42,3097.00,3364.55,500.20,483.36,9.06,0000 0000 0000 0000 000000
2014-06-08 05:13:26,0.01,0.56,0.00,30.73,35.17,37.44,9.35,40.71,1014.74,2004.03,3218.03,3096.94,3364.04,500.36,483.69,9.10,0000 0000 0000 0000 000000
2014-06-08 05:18:27,0.01,0.56,0.00,30.72,35.17,37.45,9.36,40.71,1014.74,2004.01,3218.00,3096.71,3364.00,500.00,483.16,9.14,0000 0000 0000 0000 000000
2014-06-08 05:23:28,0.01,0.56,0.00,30.72,35.17,37.45,9.30,40.72,1014.69,2004.00,3217.98,3096.33,3363.98,500.12,483.23,9.18,0000 0000 0000 0000 000000
2014-06-08 05:28:29,0.00,0.56,0.00,30.74,35.17,37.46,9.35,40.80,1014.67,2004.00,3217.91,3096.23,3363.98,499.97,482.94,9.23,0000 0000 0000 0000 000000
2014-06-08 05:33:30,0.01,0.56,0.00,30.74,35.18,37.46,9.37,40.81,1014.68,2004.00,3217.42,3096.05,3363.87,499.98,483.11,9.27,0000 0000 0000 0000 000000
2014-06-08 05:38:31,0.01,0.56,0.00,30.74,35.19,37.46,9.41,40.75,1014.70,2004.00,3217.06,3096.01,3363.55,500.07,483.14,9.31,0000 0000 0000 0000 000000
2014-06-08 05:43:33,0.01,0.56,0.00,30.74,35.19,37.45,9.27,40.58,1014.72,2004.00,3217.00,3096.00,3363.13,499.60,482.75,9.35,0000 0000 0000 0000 000000
2014-06-08 05:48:34,0.00,0.56,0.00,30.74,35.20,37.47,9.35,40.64,1014.76,2004.00,3217.00,3096.00,3363.00,499.97,483.14,9.39,0000 0000 0000 0000 000000
2014-06-08 05:53:35,0.00,0.56,0.00,30.75,35.20,37.47,9.27,40.49,1014.69,2004.00,3216.83,3095.91,3363.00,499.83,482.97,9.43,0000 0000 0000 0000 000000
2014-06-08 05:58:36,0.02,0.56,0.00,30.75,35.20,37.47,9.36,40.60,1014.67,2004.00,3216.27,3095.61,3362.98,499.91,482.96,9.48,0000 0000 0000 0000 000000
2014-06-08 06:03:37,0.01,0.56,0.00,30.75,35.20,37.47,9.32,40.56,1014.68,2004.00,3216.03,3095.22,3362.88,499.77,483.01,9.52,0000 0000 0000 0000 000000
2014-06-08 06:08:38,0.00,0.56,0.00,30.75,35.20,37.48,9.28,40.62,1014.68,2004.00,3216.00,3095.07,3362.75,499.83,482.89,9.56,0000 0000 0000 0000 000000
2014-06-08 06:13:39,0.01,0.56,0.00,30.74,35.20,37.47,9.31,40.66,1014.72,2004.00,3215.98,3095.01,3362.35,499.59,482.66,9.60,0000 0000 0000 0000 000000
2014-06-08 06:18:40,0.01,0.56,0.00,30.74,35.20,37.48,9.29,40.73,1014.71,2004.00,3215.62,3095.00,3362.07,500.08,483.19,9.64,0000 0000 0000 0000 000000
2014-06-08 06:23:41,0.01,0.56,0.00,30.75,35.20,37.49,9.37,40.59,1014.78,2004.00,3215.06,3094.99,3362.00,500.44,483.62,9.69,0000 0000 0000 0000 000000
2014-06-08 06:28:43,0.00,0.56,0.00,30.75,35.20,37.48,9.36,40.52,1014.84,2004.00,3215.00,3094.89,3361.99,499.82,483.01,9.73,0000 0000 0000 0000 000000
2014-06-08 06:33:44,0.02,0.56,0.00,30.75,35.20,37.48,9.23,40.53,1015.10,2004.00,3214.95,3094.46,3361.93,499.48,483.07,9.77,0000 0000 0000 0000 000000
2014-06-08 06:38:46,0.01,0.56,0.00,30.75,35.22,37.49,9.40,40.58,1015.15,2004.00,3214.62,3094.28,3361.88,499.99,483.56,9.81,0000 0000 0000 0000 000000
2014-06-08 06:43:46,0.03,0.57,0.00,30.75,35.22,37.48,9.31,40.53,1015.15,2004.00,3214.07,3094.03,3361.23,499.69,483.00,9.85,0000 0000 0000 0000 000000
2014-06-08 06:48:48,0.00,0.57,0.00,30.75,35.22,37.49,9.29,40.49,1015.14,2004.00,3213.96,3093.98,3361.00,499.64,482.84,9.89,0000 0000 0000 0000 000000
2014-06-08 06:53:49,0.02,0.57,0.00,30.76,35.22,37.49,9.17,40.45,1015.17,2004.01,3213.41,3093.90,3360.99,499.47,482.92,9.94,0000 0000 0000 0000 000000
2014-06-08 06:58:50,0.03,0.57,0.00,30.78,35.23,37.49,9.31,40.51,1015.29,2004.02,3213.00,3093.26,3360.65,499.57,483.01,9.98,0000 0000 0000 0000 000000
2014-06-08 07:03:51,0.03,0.57,0.00,30.80,35.24,37.50,9.29,40.55,1015.22,2004.02,3212.36,3093.01,3360.07,499.85,483.18,10.02,0000 0000 0000 0000 000000
2014-06-08 07:08:52,0.01,0.57,0.00,30.80,35.25,37.49,9.28,40.55,1015.19,2004.09,3211.98,3092.95,3359.97,500.22,483.48,10.06,0000 0000 0000 0000 000000
2014-06-08 07:13:53,0.05,0.57,0.00,30.80,35.25,37.51,9.32,40.58,1015.18,2004.05,3211.22,3092.30,3359.30,499.80,483.22,10.10,0000 0000 0000 0000 000000
2014-06-08 07:18:55,0.01,0.57,0.00,30.82,35.27,37.51,9.37,40.42,1015.18,2004.03,3211.01,3092.02,3359.01,500.03,483.10,10.15,0000 0000 0000 0000 000000
2014-06-08 07:23:56,0.01,0.57,0.00,30.84,35.27,37.52,9.28,40.48,1015.21,2004.02,3210.71,3092.00,3358.90,499.82,483.10,10.19,0000 0000 0000 0000 000000
2014-06-08 07:28:57,0.03,0.57,0.00,30.86,35.29,37.52,9.35,40.61,1015.39,2004.01,3210.09,3091.71,3358.18,499.91,483.22,10.23,0000 0000 0000 0000 000000
2014-06-08 07:33:58,0.01,0.58,0.00,30.89,35.30,37.52,9.31,40.65,1015.52,2004.00,3210.01,3091.19,3358.00,499.96,483.32,10.27,0000 0000 0000 0000 000000
2014-06-08 07:38:59,0.01,0.58,0.00,30.91,35.31,37.52,9.37,40.59,1015.61,2004.00,3209.71,3091.01,3357.93,500.42,483.50,10.31,0000 0000 0000 0000 000000
2014-06-08 07:44:00,0.02,0.58,0.00,30.92,35.32,37.54,9.42,40.58,1015.64,2004.00,3209.10,3090.99,3357.29,500.73,484.09,10.35,0000 0000 0000 0000 000000
2014-06-08 07:49:02,0.00,0.58,0.00,30.94,35.33,37.54,9.28,40.59,1015.64,2004.00,3209.00,3090.82,3357.01,499.72,482.93,10.40,0000 0000 0000 0000 000000
2014-06-08 07:54:03,0.02,0.58,0.00,30.96,35.35,37.55,9.29,40.53,1015.64,2004.00,3208.85,3090.28,3357.00,500.21,483.49,10.44,0000 0000 0000 0000 000000
2014-06-08 07:59:04,0.02,0.58,0.00,30.98,35.35,37.55,9.25,40.47,1015.64,2003.99,3208.17,3090.02,3356.85,499.47,482.74,10.48,0000 0000 0000 0000 000000
2014-06-08 08:04:05,0.01,0.58,0.00,31.00,35.36,37.55,9.36,40.54,1015.64,2003.98,3208.01,3090.00,3356.29,499.91,483.35,10.52,0000 0000 0000 0000 000000
2014-06-08 08:09:06,0.00,0.58,0.00,31.01,35.38,37.57,9.34,40.65,1015.64,2003.98,3207.99,3089.98,3356.05,499.90,483.08,10.56,0000 0000 0000 0000 000000
2014-06-08 08:14:07,0.03,0.58,0.00,31.02,35.39,37.58,9.23,40.45,1015.64,2003.92,3207.46,3089.51,3355.99,499.80,482.93,10.61,0000 0000 0000 0000 000000
2014-06-08 08:19:08,0.01,0.58,0.00,31.03,35.40,37.59,9.26,40.29,1015.67,2003.94,3207.02,3089.09,3355.83,499.64,482.76,10.65,0000 0000 0000 0000 000000
2014-06-08 08:24:09,-0.01,0.58,0.00,31.05,35.41,37.61,9.29,40.23,1015.76,2003.75,3207.00,3089.00,3355.15,499.91,483.06,10.69,0000 0000 0000 0000 000000
2014-06-08 08:29:10,-0.03,0.58,0.00,31.05,35.42,37.62,9.34,40.18,1015.85,2003.37,3206.83,3088.98,3355.00,500.06,483.30,10.73,0000 0000 0000 0000 000000
2014-06-08 08:34:11,0.01,0.58,0.00,31.06,35.43,37.64,9.39,40.29,1016.02,2003.18,3206.12,3088.74,3354.89,500.34,483.49,10.77,0000 0000 0000 0000 000000
2014-06-08 08:39:12,0.02,0.58,0.00,31.07,35.45,37.64,9.27,40.56,1016.11,2003.09,3205.96,3088.18,3354.39,500.11,483.32,10.81,0000 0000 0000 0000 000000
2014-06-08 08:44:14,0.03,0.58,0.00,31.07,35.45,37.66,9.30,40.67,1016.12,2003.16,3205.21,3088.01,3354.07,499.84,483.19,10.86,0000 0000 0000 0000 000000
2014-06-08 08:49:15,0.00,0.58,0.00,31.07,35.46,37.67,9.26,40.37,1016.13,2003.11,3204.99,3087.98,3353.98,499.79,483.00,10.90,0000 0000 0000 0000 000000
2014-06-08 08:54:16,0.03,0.58,0.00,31.07,35.47,37.67,9.34,40.33,1016.13,2003.08,3204.50,3087.66,3353.67,500.01,483.15,10.94,0000 0000 0000 0000 000000
2014-06-08 08:59:16,0.03,0.59,0.00,31.09,35.48,37.68,9.26,40.42,1016.13,2003.08,3204.01,3087.10,3353.10,499.88,483.20,10.98,0000 0000 0000 0000 000000
2014-06-08 09:04:18,0.01,0.59,0.00,31.08,35.50,37.69,9.35,40.75,1016.13,2003.08,3203.74,3087.01,3353.00,500.36,483.46,11.02,0000 0000 0000 0000 000000
2014-06-08 09:09:19,0.02,0.59,0.00,31.08,35.50,37.70,9.31,40.52,1016.13,2003.06,3203.03,3086.95,3352.77,500.17,483.30,11.07,0000 0000 0000 0000 000000
2014-06-08 09:14:20,0.04,0.59,0.00,31.09,35.50,37.72,9.31,40.49,1016.13,2003.03,3202.72,3086.29,3352.07,499.71,482.84,11.11,0000 0000 0000 0000 000000
2014-06-08 09:19:21,0.01,0.59,0.00,31.10,35.52,37.73,9.33,40.50,1016.13,2003.02,3202.03,3086.01,3351.98,499.67,482.94,11.15,0000 0000 0000 0000 000000
2014-06-08 09:24:22,0.01,0.59,0.00,31.10,35.52,37.74,9.24,40.45,1016.13,2003.00,3201.88,3085.99,3351.77,499.44,482.70,11.19,0000 0000 0000 0000 000000
2014-06-08 09:29:23,0.03,0.59,0.00,31.10,35.53,37.74,9.37,40.44,1016.14,2003.00,3201.12,3085.76,3351.12,500.17,483.36,11.23,0000 0000 0000 0000 000000
2014-06-08 09:34:24,0.01,0.59,0.00,31.10,35.54,37.74,9.39,40.43,1016.14,2003.01,3200.96,3085.23,3351.00,500.15,483.40,11.27,0000 0000 0000 0000 000000
2014-06-08 09:39:26,0.02,0.59,0.00,31.10,35.55,37.76,9.36,40.41,1016.16,2003.01,3200.40,3085.01,3350.88,500.19,483.26,11.32,0000 0000 0000 0000 000000
2014-06-08 09:44:27,0.01,0.59,0.00,31.10,35.55,37.77,9.31,40.53,1016.20,2003.00,3199.99,3084.99,3350.27,499.80,483.09,11.36,0000 0000 0000 0000 000000
2014-06-08 09:49:28,0.02,0.59,0.00,31.10,35.56,37.77,9.35,40.49,1016.36,2003.00,3199.42,3084.81,3350.00,500.25,483.54,11.40,0000 0000 0000 0000 000000
2014-06-08 09:54:29,0.01,0.60,0.00,31.11,35.57,37.77,9.34,40.39,1016.54,2003.00,3199.02,3084.40,3349.99,499.85,483.23,11.44,0000 0000 0000 0000 000000
2014-06-08 09:59:31,0.01,0.60,0.00,31.12,35.58,37.79,9.36,40.33,1016.62,2003.00,3198.99,3084.07,3349.86,499.84,483.25,11.48,0000 0000 0000 0000 000000
2014-06-08 10:04:32,0.02,0.60,0.00,31.11,35.58,37.80,9.38,40.42,1016.62,2003.00,3198.43,3084.00,3349.18,500.29,483.73,11.53,0000 0000 0000 0000 000000
2014-06-08 10:09:33,0.00,0.60,0.00,31.12,35.60,37.80,9.29,40.34,1016.62,2003.00,3198.02,3083.98,3349.00,499.91,483.29,11.57,0000 0000 0000 0000 000000
2014-06-08 10:14:34,0.02,0.60,0.00,31.12,35.60,37.80,9.31,40.30,1016.65,2003.00,3197.76,3083.58,3348.93,499.99,483.49,11.61,0000 0000 0000 0000 000000
2014-06-08 10:19:35,0.03,0.60,0.00,31.12,35.60,37.81,9.32,40.36,1016.69,2003.00,3197.07,3083.09,3348.53,499.74,483.26,11.65,0000 0000 0000 0000 000000
2014-06-08 10:24:36,0.00,0.60,0.00,31.12,35.61,37.82,9.34,40.33,1016.82,2003.00,3196.97,3083.00,3348.05,499.99,483.44,11.69,0000 0000 0000 0000 000000
2014-06-08 10:29:37,0.01,0.60,0.00,31.13,35.62,37.82,9.38,40.33,1017.01,2003.00,3196.38,3083.00,3348.00,500.27,483.93,11.73,0000 0000 0000 0000 000000
2014-06-08 10:34:39,0.00,0.60,0.00,31.14,35.62,37.83,9.26,40.10,1017.09,2003.00,3196.02,3082.95,3347.97,499.97,483.65,11.78,0000 0000 0000 0000 000000
2014-06-08 10:39:40,0.01,0.60,0.00,31.15,35.62,37.84,9.33,40.07,1017.10,2003.00,3195.99,3082.74,3347.69,500.06,483.65,11.82,0000 0000 0000 0000 000000
2014-06-08 10:44:42,0.04,0.60,0.00,31.15,35.64,37.84,9.28,39.96,1017.08,2003.00,3195.41,3082.08,3347.07,499.94,483.59,11.86,0000 0000 0000 0000 000000
2014-06-08 10:49:43,0.00,0.60,0.00,31.15,35.65,37.85,9.34,40.21,1017.04,2003.00,3195.04,3082.00,3347.00,499.64,483.41,11.90,0000 0000 0000 0000 000000
2014-06-08 10:54:44,0.01,0.60,0.00,31.16,35.65,37.86,9.34,40.22,1017.09,2002.98,3194.90,3081.98,3346.81,499.89,483.37,11.94,0000 0000 0000 0000 000000
2014-06-08 10:59:45,0.04,0.61,0.00,31.16,35.65,37.87,9.38,40.33,1017.09,2002.99,3194.20,3081.69,3346.25,500.04,483.67,11.99,0000 0000 0000 0000 000000
2014-06-08 11:04:46,0.01,0.61,0.00,31.17,35.66,37.87,9.34,40.20,1017.09,2002.98,3194.00,3081.21,3346.01,500.24,483.71,12.03,0000 0000 0000 0000 000000
2014-06-08 11:09:47,0.00,0.61,0.00,31.17,35.67,37.88,9.29,40.28,1017.09,2002.99,3193.91,3081.03,3346.00,500.09,483.70,12.07,0000 0000 0000 0000 000000
2014-06-08 11:14:49,0.02,0.61,0.00,31.17,35.67,37.88,9.39,40.14,1017.09,2002.97,3193.23,3081.00,3345.84,500.31,483.84,12.11,0000 0000 0000 0000 000000
2014-06-08 11:19:50,0.01,0.61,0.00,31.18,35.68,37.89,9.36,40.20,1017.09,2002.94,3192.99,3080.97,3345.24,499.83,483.48,12.15,0000 0000 0000 0000 000000
2014-06-08 11:24:51,0.02,0.61,0.00,31.17,35.69,37.90,9.28,40.08,1017.10,2002.91,3192.66,3080.75,3345.01,500.33,483.82,12.20,0000 0000 0000 0000 000000
2014-06-08 11:29:52,0.02,0.61,0.00,31.17,35.70,37.90,9.29,40.23,1017.10,2002.88,3192.04,3080.16,3344.97,500.11,483.69,12.24,0000 0000 0000 0000 000000
2014-06-08 11:34:53,0.01,0.61,0.00,31.19,35.70,37.91,9.31,40.32,1017.10,2002.89,3191.99,3080.01,3344.83,499.92,483.47,12.28,0000 0000 0000 0000 000000
2014-06-08 11:39:54,0.02,0.61,0.00,31.19,35.70,37.92,9.36,40.41,1017.10,2002.83,3191.43,3080.00,3344.19,500.22,483.82,12.32,0000 0000 0000 0000 000000
2014-06-08 11:44:56,0.02,0.61,0.00,31.17,35.70,37.92,9.35,40.26,1017.10,2002.90,3191.04,3079.98,3344.01,500.12,483.76,12.36,0000 0000 0000 0000 000000
2014-06-08 11:49:56,0.00,0.61,0.00,31.19,35.72,37.93,9.36,40.15,1017.10,2002.75,3190.83,3079.57,3343.98,500.10,483.68,12.40,0000 0000 0000 0000 000000
2014-06-08 11:54:58,0.01,0.61,0.00,31.20,35.72,37.94,9.29,40.08,1017.10,2002.58,3190.18,3079.10,3343.64,499.67,483.44,12.45,0000 0000 0000 0000 000000
2014-06-08 11:59:59,0.02,0.61,0.00,31.20,35.72,37.94,9.28,40.08,1017.11,2002.57,3190.00,3079.00,3343.08,499.86,483.39,12.49,0000 0000 0000 0000 000000
2014-06-08 12:05:00,-0.02,0.61,0.00,31.20,35.73,37.93,9.32,40.08,1017.11,2002.39,3189.55,3078.97,3343.00,499.99,483.54,12.53,0000 0000 0000 0000 000000
2014-06-08 12:10:01,0.00,0.61,0.00,31.20,35.73,37.94,9.25,39.98,1017.11,2002.15,3189.02,3078.69,3342.84,499.66,483.32,12.57,0000 0000 0000 0000 000000
2014-06-08 12:15:02,0.04,0.61,0.00,31.20,35.75,37.95,9.29,39.99,1017.11,2002.26,3188.99,3078.45,3342.41,499.68,483.12,12.61,0000 0000 0000 0000 000000
2014-06-08 12:20:03,0.02,0.62,0.00,31.20,35.75,37.96,9.28,39.99,1017.11,2002.25,3188.61,3078.12,3342.07,500.06,483.67,12.66,0000 0000 0000 0000 000000
2014-06-08 12:25:04,-0.01,0.62,0.00,31.21,35.75,37.97,9.30,39.89,1017.11,2002.18,3188.04,3078.00,3342.00,500.18,483.56,12.70,0000 0000 0000 0000 000000
2014-06-08 12:30:05,0.01,0.62,0.00,31.22,35.75,37.97,9.34,39.91,1017.11,2002.14,3187.92,3077.98,3341.94,500.14,483.46,12.74,0000 0000 0000 0000 000000
2014-06-08 12:35:06,0.03,0.62,0.00,31.22,35.77,37.97,9.39,40.17,1017.11,2002.10,3187.23,3077.78,3341.41,500.03,483.62,12.78,0000 0000 0000 0000 000000
2014-06-08 12:40:07,0.02,0.62,0.00,31.22,35.77,37.98,9.28,39.95,1017.12,2002.06,3187.00,3077.23,3341.04,499.89,483.41,12.82,0000 0000 0000 0000 000000
2014-06-08 12:45:08,0.02,0.62,0.00,31.23,35.77,37.99,9.38,39.90,1017.15,2002.03,3186.73,3077.02,3340.99,499.95,483.51,12.86,0000 0000 0000 0000 000000
2014-06-08 12:50:10,0.00,0.62,0.00,31.24,35.78,38.00,9.28,39.82,1017.13,2002.01,3186.14,3077.00,3340.78,499.88,483.28,12.91,0000 0000 0000 0000 000000
2014-06-08 12:55:11,0.01,0.62,0.00,31.25,35.79,37.99,9.25,39.66,1017.14,2002.02,3186.00,3076.98,3340.36,500.35,483.73,12.95,0000 0000 0000 0000 000000
2014-06-08 13:00:13,0.02,0.62,0.00,31.25,35.80,38.00,9.29,40.08,1017.26,2002.01,3185.80,3076.76,3340.04,499.38,482.98,12.99,0000 0000 0000 0000 000000